Find Starlink 1266

NORAD ID: 45383 Int'l Des: 2020-019 Owner: SPXS Country: US Constellation: starlink operational
LEOCIRCULAR

現在のビュー

3D地球を読み込み中...

Starlink 1266について

説明を読み込み中...

次回通過

Passes for default location (London). Set your location on the main map for personalized predictions.

高度履歴

Loading altitude history...

軌道要素

1 45383U 20019Z 26150.29509929 .00068875 00000-0 69001-3 0 9997
2 45383 53.0455 99.9720 0001430 104.5640 255.5533 15.64930085342874
Epoch: May 30, 2026 • Age: 12 hours

現在のステータス

高度 373.5 km
速度 7.69 km/s
衛星直下点 19.73°N, 67.06°W
打ち上げ日 Mar 18, 2020
運用期間 6.1 years
タイプ internet

技術仕様

分類 Payload
質量 260.00 kg
乾燥質量 248.00 kg
総質量 260.00 kg
長さ 0.20 m
直径 2.80 m
スパン 9.00 m
形状 Box + pan
製造者 SPXS
バスタイプ Starlink
フェーズステータス In Orbit
所有者/国 SPXS/US

Most Searched